Location: Las Navas
(40.6024°N, 4.3345°W)
Time: 07:24:15
(UTC+00:00)

CSL-04 Rocket - Pass Details

Date: 03 April 2020
Orbit: 807 x 859 km, 98.9° (Epoch: 29 May)

Event Time Altitude Azimuth Distance (km) Brightness Sun altitude
Rises 19:01:33 0° 165° (SSE) 3,327 6.5 -4.0°
Reaches altitude 10° 19:03:53 10° 165° (SSE) 2,394 5.8 -4.5°
Maximum altitude 19:09:11 89° 256° (WSW) 815 3.7 -5.4°
Drops below altitude 10° 19:14:29 10° 346° (NNW) 2,397 6.5 -6.4°
Sets 19:16:50 0° 347° (NNW) 3,333 7.2 -6.9°
